Year,Month,Day,Hour,Minute,Value (Times are PST for temperature in C)
2015,04,28,00,00,15.60
2015,04,28,00,01,15.60
2015,04,28,00,02,15.60
2015,04,28,00,03,15.50
2015,04,28,00,04,15.50
2015,04,28,00,05,15.50
2015,04,28,00,06,15.40
2015,04,28,00,07,15.40
2015,04,28,00,08,15.40
2015,04,28,00,09,15.40
2015,04,28,00,10,15.40
2015,04,28,00,11,15.30
2015,04,28,00,12,15.30
2015,04,28,00,13,15.20
2015,04,28,00,14,15.20
2015,04,28,00,15,15.20
2015,04,28,00,16,15.20
2015,04,28,00,17,15.20
2015,04,28,00,18,15.20
2015,04,28,00,19,15.20
2015,04,28,00,20,15.10
2015,04,28,00,21,15.10
2015,04,28,00,22,15.10
2015,04,28,00,23,15.00
2015,04,28,00,24,15.00
2015,04,28,00,25,14.90
2015,04,28,00,26,14.90
2015,04,28,00,27,14.90
2015,04,28,00,28,14.80
2015,04,28,00,29,14.80
2015,04,28,00,30,14.70
2015,04,28,00,31,14.70
2015,04,28,00,32,14.70
2015,04,28,00,33,14.70
2015,04,28,00,34,14.60
2015,04,28,00,35,14.60
2015,04,28,00,36,14.60
2015,04,28,00,37,14.60
2015,04,28,00,38,14.50
2015,04,28,00,39,14.50
2015,04,28,00,40,14.50
2015,04,28,00,41,14.50
2015,04,28,00,42,14.50
2015,04,28,00,43,14.50
2015,04,28,00,44,14.40
2015,04,28,00,45,14.50
2015,04,28,00,46,14.40
2015,04,28,00,47,14.50
2015,04,28,00,48,14.50
2015,04,28,00,49,14.60
2015,04,28,00,50,14.60
2015,04,28,00,51,14.60
2015,04,28,00,52,14.60
2015,04,28,00,53,14.60
2015,04,28,00,54,14.60
2015,04,28,00,55,14.60
2015,04,28,00,56,14.60
2015,04,28,00,57,14.60
2015,04,28,00,58,14.60
2015,04,28,00,59,14.60
2015,04,28,01,00,14.60
2015,04,28,01,01,14.60
2015,04,28,01,02,14.60
2015,04,28,01,03,14.50
2015,04,28,01,04,14.50
2015,04,28,01,05,14.50
2015,04,28,01,06,14.50
2015,04,28,01,07,14.50
2015,04,28,01,08,14.50
2015,04,28,01,09,14.40
2015,04,28,01,10,14.50
2015,04,28,01,11,14.50
2015,04,28,01,12,14.50
2015,04,28,01,13,14.50
2015,04,28,01,14,14.50
2015,04,28,01,15,14.60
2015,04,28,01,16,14.60
2015,04,28,01,17,14.60
2015,04,28,01,18,14.60
2015,04,28,01,19,14.60
2015,04,28,01,20,14.70
2015,04,28,01,21,14.70
2015,04,28,01,22,14.70
2015,04,28,01,23,14.70
2015,04,28,01,24,14.70
2015,04,28,01,25,14.70
2015,04,28,01,26,14.70
2015,04,28,01,27,14.70
2015,04,28,01,28,14.70
2015,04,28,01,29,14.70
2015,04,28,01,30,14.70
2015,04,28,01,31,14.70
2015,04,28,01,32,14.70
2015,04,28,01,33,14.70
2015,04,28,01,34,14.70
2015,04,28,01,35,14.70
2015,04,28,01,36,14.70
2015,04,28,01,37,14.80
2015,04,28,01,38,14.80
2015,04,28,01,39,14.80
2015,04,28,01,40,14.80
2015,04,28,01,41,14.80
2015,04,28,01,42,14.80
2015,04,28,01,43,14.80
2015,04,28,01,44,14.90
2015,04,28,01,45,14.90
2015,04,28,01,46,14.90
2015,04,28,01,47,14.90
2015,04,28,01,48,14.90
2015,04,28,01,49,14.90
2015,04,28,01,50,14.90
2015,04,28,01,51,15.00
2015,04,28,01,52,15.00
2015,04,28,01,53,15.00
2015,04,28,01,54,15.00
2015,04,28,01,55,15.00
2015,04,28,01,56,15.10
2015,04,28,01,57,15.10
2015,04,28,01,58,15.10
2015,04,28,01,59,15.10
2015,04,28,02,00,15.10
2015,04,28,02,01,15.10
2015,04,28,02,02,15.10
2015,04,28,02,03,15.10
2015,04,28,02,04,15.10
2015,04,28,02,05,15.10
2015,04,28,02,06,15.10
2015,04,28,02,07,15.10
2015,04,28,02,08,15.10
2015,04,28,02,09,15.10
2015,04,28,02,10,15.10
2015,04,28,02,11,15.10
2015,04,28,02,12,15.10
2015,04,28,02,13,15.20
2015,04,28,02,14,15.20
2015,04,28,02,15,15.20
2015,04,28,02,16,15.20
2015,04,28,02,17,15.20
2015,04,28,02,18,15.20
2015,04,28,02,19,15.20
2015,04,28,02,20,15.20
2015,04,28,02,21,15.20
2015,04,28,02,22,15.20
2015,04,28,02,23,15.20
2015,04,28,02,24,15.20
2015,04,28,02,25,15.20
2015,04,28,02,26,15.20
2015,04,28,02,27,15.20
2015,04,28,02,28,15.20
2015,04,28,02,29,15.20
2015,04,28,02,30,15.20
2015,04,28,02,31,15.20
2015,04,28,02,32,15.10
2015,04,28,02,33,15.10
2015,04,28,02,34,15.00
2015,04,28,02,35,15.00
2015,04,28,02,36,14.90
2015,04,28,02,37,14.90
2015,04,28,02,38,14.80
2015,04,28,02,39,14.80
2015,04,28,02,40,14.70
2015,04,28,02,41,14.70
2015,04,28,02,42,14.70
2015,04,28,02,43,14.70
2015,04,28,02,44,14.60
2015,04,28,02,45,14.60
2015,04,28,02,46,14.60
2015,04,28,02,47,14.60
2015,04,28,02,48,14.50
2015,04,28,02,49,14.50
2015,04,28,02,50,14.40
2015,04,28,02,51,14.40
2015,04,28,02,52,14.40
2015,04,28,02,53,14.40
2015,04,28,02,54,14.30
2015,04,28,02,55,14.30
2015,04,28,02,56,14.30
2015,04,28,02,57,14.30
2015,04,28,02,58,14.20
2015,04,28,02,59,14.20
2015,04,28,03,00,14.10
2015,04,28,03,01,14.10
2015,04,28,03,02,14.00
2015,04,28,03,03,14.00
2015,04,28,03,04,13.90
2015,04,28,03,05,13.90
2015,04,28,03,06,13.90
2015,04,28,03,07,13.90
2015,04,28,03,08,13.90
2015,04,28,03,09,13.80
2015,04,28,03,10,13.80
2015,04,28,03,11,13.70
2015,04,28,03,12,13.70
2015,04,28,03,13,13.70
2015,04,28,03,14,13.70
2015,04,28,03,15,13.60
2015,04,28,03,16,13.60
2015,04,28,03,17,13.60
2015,04,28,03,18,13.60
2015,04,28,03,19,13.60
2015,04,28,03,20,13.60
2015,04,28,03,21,13.60
2015,04,28,03,22,13.50
2015,04,28,03,23,13.50
2015,04,28,03,24,13.50
2015,04,28,03,25,13.40
2015,04,28,03,26,13.40
2015,04,28,03,27,13.30
2015,04,28,03,28,13.30
2015,04,28,03,29,13.20
2015,04,28,03,30,13.10
2015,04,28,03,31,13.10
2015,04,28,03,32,13.10
2015,04,28,03,33,13.00
2015,04,28,03,34,13.00
2015,04,28,03,35,12.90
2015,04,28,03,36,12.90
2015,04,28,03,37,12.80
2015,04,28,03,38,12.70
2015,04,28,03,39,12.60
2015,04,28,03,40,12.60
2015,04,28,03,41,12.60
2015,04,28,03,42,12.60
2015,04,28,03,43,12.50
2015,04,28,03,44,12.40
2015,04,28,03,45,12.30
2015,04,28,03,46,12.30
2015,04,28,03,47,12.20
2015,04,28,03,48,12.10
2015,04,28,03,49,12.00
2015,04,28,03,50,11.90
2015,04,28,03,51,11.80
2015,04,28,03,52,11.80
2015,04,28,03,53,11.80
2015,04,28,03,54,11.80
2015,04,28,03,55,11.80
2015,04,28,03,56,11.80
2015,04,28,03,57,11.80
2015,04,28,03,58,11.80
2015,04,28,03,59,11.70
2015,04,28,04,00,11.70
2015,04,28,04,01,11.60
2015,04,28,04,02,11.60
2015,04,28,04,03,11.50
2015,04,28,04,04,11.50
2015,04,28,04,05,11.50
2015,04,28,04,06,11.40
2015,04,28,04,07,11.40
2015,04,28,04,08,11.30
2015,04,28,04,09,11.30
2015,04,28,04,10,11.30
2015,04,28,04,11,11.30
2015,04,28,04,12,11.30
2015,04,28,04,13,11.20
2015,04,28,04,14,11.20
2015,04,28,04,15,11.20
2015,04,28,04,16,11.10
2015,04,28,04,17,11.10
2015,04,28,04,18,11.10
2015,04,28,04,19,11.10
2015,04,28,04,20,11.20
2015,04,28,04,21,11.30
2015,04,28,04,22,11.40
2015,04,28,04,23,11.40
2015,04,28,04,24,11.40
2015,04,28,04,25,11.30
2015,04,28,04,26,11.40
2015,04,28,04,27,11.40
2015,04,28,04,28,11.40
2015,04,28,04,29,11.40
2015,04,28,04,30,11.40
2015,04,28,04,31,11.50
2015,04,28,04,32,11.50
2015,04,28,04,33,11.50
2015,04,28,04,34,11.40
2015,04,28,04,35,11.30
2015,04,28,04,36,11.30
2015,04,28,04,37,11.30
2015,04,28,04,38,11.30
2015,04,28,04,39,11.30
2015,04,28,04,40,11.30
2015,04,28,04,41,11.30
2015,04,28,04,42,11.30
2015,04,28,04,43,11.30
2015,04,28,04,44,11.30
2015,04,28,04,45,11.20
2015,04,28,04,46,11.20
2015,04,28,04,47,11.20
2015,04,28,04,48,11.10
2015,04,28,04,49,11.10
2015,04,28,04,50,11.10
2015,04,28,04,51,11.10
2015,04,28,04,52,11.20
2015,04,28,04,53,11.20
2015,04,28,04,54,11.20
2015,04,28,04,55,11.20
2015,04,28,04,56,11.10
2015,04,28,04,57,11.10
2015,04,28,04,58,11.20
2015,04,28,04,59,11.20
2015,04,28,05,00,11.10
2015,04,28,05,01,11.10
2015,04,28,05,02,11.10
2015,04,28,05,03,11.10
2015,04,28,05,04,11.10
2015,04,28,05,05,11.00
2015,04,28,05,06,11.00
2015,04,28,05,07,10.90
2015,04,28,05,08,10.90
2015,04,28,05,09,10.90
2015,04,28,05,10,10.90
2015,04,28,05,11,10.90
2015,04,28,05,12,10.90
2015,04,28,05,13,10.90
2015,04,28,05,14,10.80
2015,04,28,05,15,10.80
2015,04,28,05,16,10.80
2015,04,28,05,17,10.70
2015,04,28,05,18,10.70
2015,04,28,05,19,10.70
2015,04,28,05,20,10.70
2015,04,28,05,21,10.70
2015,04,28,05,22,10.70
2015,04,28,05,23,10.60
2015,04,28,05,24,10.60
2015,04,28,05,25,10.60
2015,04,28,05,26,10.50
2015,04,28,05,27,10.50
2015,04,28,05,28,10.50
2015,04,28,05,29,10.70
2015,04,28,05,30,10.80
2015,04,28,05,31,10.90
2015,04,28,05,32,11.10
2015,04,28,05,33,11.20
2015,04,28,05,34,11.50
2015,04,28,05,35,11.70
2015,04,28,05,36,11.90
2015,04,28,05,37,12.00
2015,04,28,05,38,12.00
2015,04,28,05,39,12.00
2015,04,28,05,40,11.90
2015,04,28,05,41,11.80
2015,04,28,05,42,11.80
2015,04,28,05,43,11.60
2015,04,28,05,44,11.50
2015,04,28,05,45,11.50
2015,04,28,05,46,11.40
2015,04,28,05,47,11.40
2015,04,28,05,48,11.40
2015,04,28,05,49,11.40
2015,04,28,05,50,11.40
2015,04,28,05,51,11.40
2015,04,28,05,52,11.30
2015,04,28,05,53,11.30
2015,04,28,05,54,11.40
2015,04,28,05,55,11.40
2015,04,28,05,56,11.30
2015,04,28,05,57,11.30
2015,04,28,05,58,11.40
2015,04,28,05,59,11.50
2015,04,28,06,00,11.50
2015,04,28,06,01,11.60
2015,04,28,06,02,11.60
2015,04,28,06,03,11.60
2015,04,28,06,04,11.60
2015,04,28,06,05,11.60
2015,04,28,06,06,11.60
2015,04,28,06,07,11.60
2015,04,28,06,08,11.60
2015,04,28,06,09,11.50
2015,04,28,06,10,11.50
2015,04,28,06,11,11.40
2015,04,28,06,12,11.40
2015,04,28,06,13,11.30
2015,04,28,06,14,11.30
2015,04,28,06,15,11.20
2015,04,28,06,16,11.20
2015,04,28,06,17,11.30
2015,04,28,06,18,11.30
2015,04,28,06,19,11.40
2015,04,28,06,20,11.50
2015,04,28,06,21,11.50
2015,04,28,06,22,11.50
2015,04,28,06,23,11.60
2015,04,28,06,24,11.50
2015,04,28,06,25,11.50
2015,04,28,06,26,11.50
2015,04,28,06,27,11.50
2015,04,28,06,28,11.50
2015,04,28,06,29,11.50
2015,04,28,06,30,11.40
2015,04,28,06,31,11.40
2015,04,28,06,32,11.40
2015,04,28,06,33,11.40
2015,04,28,06,34,11.40
2015,04,28,06,35,11.40
2015,04,28,06,36,11.40
2015,04,28,06,37,11.40
2015,04,28,06,38,11.40
2015,04,28,06,39,11.40
2015,04,28,06,40,11.30
2015,04,28,06,41,11.30
2015,04,28,06,42,11.30
2015,04,28,06,43,11.20
2015,04,28,06,44,11.20
2015,04,28,06,45,11.20
2015,04,28,06,46,11.10
2015,04,28,06,47,11.10
2015,04,28,06,48,11.10
2015,04,28,06,49,11.10
2015,04,28,06,50,11.10
2015,04,28,06,51,11.10
2015,04,28,06,52,11.10
2015,04,28,06,53,11.10
2015,04,28,06,54,11.10
2015,04,28,06,55,11.10
2015,04,28,06,56,11.10
2015,04,28,06,57,11.20
2015,04,28,06,58,11.20
2015,04,28,06,59,11.30
2015,04,28,07,00,11.30
2015,04,28,07,01,11.30
2015,04,28,07,02,11.40
2015,04,28,07,03,11.40
2015,04,28,07,04,11.50
2015,04,28,07,05,11.50
2015,04,28,07,06,11.50
2015,04,28,07,07,11.50
2015,04,28,07,08,11.50
2015,04,28,07,09,11.60
2015,04,28,07,10,11.60
2015,04,28,07,11,11.60
2015,04,28,07,12,11.70
2015,04,28,07,13,11.80
2015,04,28,07,14,11.80
2015,04,28,07,15,11.90
2015,04,28,07,16,12.00
2015,04,28,07,17,12.20
2015,04,28,07,18,12.30
2015,04,28,07,19,12.40
2015,04,28,07,20,12.60
2015,04,28,07,21,12.70
2015,04,28,07,22,12.80
2015,04,28,07,23,13.00
2015,04,28,07,24,13.10
2015,04,28,07,25,13.20
2015,04,28,07,26,13.30
2015,04,28,07,27,13.30
2015,04,28,07,28,13.40
2015,04,28,07,29,13.50
2015,04,28,07,30,13.50
2015,04,28,07,31,13.60
2015,04,28,07,32,13.70
2015,04,28,07,33,13.70
2015,04,28,07,34,13.70
2015,04,28,07,35,13.80
2015,04,28,07,36,13.80
2015,04,28,07,37,13.80
2015,04,28,07,38,13.90
2015,04,28,07,39,13.90
2015,04,28,07,40,13.90
2015,04,28,07,41,13.90
2015,04,28,07,42,13.90
2015,04,28,07,43,13.90
2015,04,28,07,44,14.00
2015,04,28,07,45,14.00
2015,04,28,07,46,14.00
2015,04,28,07,47,14.10
2015,04,28,07,48,14.10
2015,04,28,07,49,14.10
2015,04,28,07,50,14.00
2015,04,28,07,51,14.00
2015,04,28,07,52,14.00
2015,04,28,07,53,13.90
2015,04,28,07,54,13.90
2015,04,28,07,55,13.80
2015,04,28,07,56,13.70
2015,04,28,07,57,13.70
2015,04,28,07,58,13.60
2015,04,28,07,59,13.60
2015,04,28,08,00,13.50
2015,04,28,08,01,13.40
2015,04,28,08,02,13.40
2015,04,28,08,03,13.40
2015,04,28,08,04,13.30
2015,04,28,08,05,13.30
2015,04,28,08,06,13.30
2015,04,28,08,07,13.30
2015,04,28,08,08,13.30
2015,04,28,08,09,13.20
2015,04,28,08,10,13.20
2015,04,28,08,11,13.20
2015,04,28,08,12,13.20
2015,04,28,08,13,13.10
2015,04,28,08,14,13.10
2015,04,28,08,15,13.10
2015,04,28,08,16,13.10
2015,04,28,08,17,13.10
2015,04,28,08,18,13.00
2015,04,28,08,19,13.00
2015,04,28,08,20,13.00
2015,04,28,08,21,12.90
2015,04,28,08,22,12.90
2015,04,28,08,23,12.90
2015,04,28,08,24,12.90
2015,04,28,08,25,12.80
2015,04,28,08,26,12.80
2015,04,28,08,27,12.80
2015,04,28,08,28,12.80
2015,04,28,08,29,12.70
2015,04,28,08,30,12.70
2015,04,28,08,31,12.70
2015,04,28,08,32,12.70
2015,04,28,08,33,12.70
2015,04,28,08,34,12.60
2015,04,28,08,35,12.60
2015,04,28,08,36,12.60
2015,04,28,08,37,12.60
2015,04,28,08,38,12.50
2015,04,28,08,39,12.50
2015,04,28,08,40,12.50
2015,04,28,08,41,12.50
2015,04,28,08,42,12.50
2015,04,28,08,43,12.50
2015,04,28,08,44,12.60
2015,04,28,08,45,12.60
2015,04,28,08,46,12.60
2015,04,28,08,47,12.60
2015,04,28,08,48,12.60
2015,04,28,08,49,12.60
2015,04,28,08,50,12.60
2015,04,28,08,51,12.60
2015,04,28,08,52,12.50
2015,04,28,08,53,12.50
2015,04,28,08,54,12.50
2015,04,28,08,55,12.50
2015,04,28,08,56,12.40
2015,04,28,08,57,12.40
2015,04,28,08,58,12.40
2015,04,28,08,59,12.40
2015,04,28,09,00,12.30
2015,04,28,09,01,12.30
2015,04,28,09,02,12.30
2015,04,28,09,03,12.30
2015,04,28,09,04,12.30
2015,04,28,09,05,12.30
2015,04,28,09,06,12.30
2015,04,28,09,07,12.30
2015,04,28,09,08,12.30
2015,04,28,09,09,12.30
2015,04,28,09,10,12.30
2015,04,28,09,11,12.20
2015,04,28,09,12,12.20
2015,04,28,09,13,12.30
2015,04,28,09,14,12.30
2015,04,28,09,15,12.30
2015,04,28,09,16,12.30
2015,04,28,09,17,12.30
2015,04,28,09,18,12.30
2015,04,28,09,19,12.20
2015,04,28,09,20,12.20
2015,04,28,09,21,12.20
2015,04,28,09,22,12.20
2015,04,28,09,23,12.20
2015,04,28,09,24,12.20
2015,04,28,09,25,12.20
2015,04,28,09,26,12.20
2015,04,28,09,27,12.20
2015,04,28,09,28,12.10
2015,04,28,09,29,12.10
2015,04,28,09,30,12.10
2015,04,28,09,31,12.10
2015,04,28,09,32,12.10
2015,04,28,09,33,12.00
2015,04,28,09,34,12.00
2015,04,28,09,35,12.00
2015,04,28,09,36,12.00
2015,04,28,09,37,11.90
2015,04,28,09,38,11.90
2015,04,28,09,39,11.90
2015,04,28,09,40,11.90
2015,04,28,09,41,11.90
2015,04,28,09,42,11.80
2015,04,28,09,43,11.80
2015,04,28,09,44,11.80
2015,04,28,09,45,11.80
2015,04,28,09,46,11.80
2015,04,28,09,47,11.80
2015,04,28,09,48,11.80
2015,04,28,09,49,11.80
2015,04,28,09,50,11.80
2015,04,28,09,51,11.80
2015,04,28,09,52,11.80
2015,04,28,09,53,11.80
2015,04,28,09,54,11.80
2015,04,28,09,55,11.80
2015,04,28,09,56,11.80
2015,04,28,09,57,11.80
2015,04,28,09,58,11.80
2015,04,28,09,59,11.80
2015,04,28,10,00,11.70
2015,04,28,10,01,11.70
2015,04,28,10,02,11.70
2015,04,28,10,03,11.70
2015,04,28,10,04,11.70
2015,04,28,10,05,11.70
2015,04,28,10,06,11.70
2015,04,28,10,07,11.70
2015,04,28,10,08,11.70
2015,04,28,10,09,11.70
2015,04,28,10,10,11.70
2015,04,28,10,11,11.70
2015,04,28,10,12,11.70
2015,04,28,10,13,11.70
2015,04,28,10,14,11.70
2015,04,28,10,15,11.70
2015,04,28,10,16,11.60
2015,04,28,10,17,11.60
2015,04,28,10,18,11.60
2015,04,28,10,19,11.60
2015,04,28,10,20,11.60
2015,04,28,10,21,11.60
2015,04,28,10,22,11.60
2015,04,28,10,23,11.60
2015,04,28,10,24,11.60
2015,04,28,10,25,11.60
2015,04,28,10,26,11.60
2015,04,28,10,27,11.60
2015,04,28,10,28,11.60
2015,04,28,10,29,11.60
2015,04,28,10,30,11.60
2015,04,28,10,31,11.60
2015,04,28,10,32,11.50
2015,04,28,10,33,11.60
2015,04,28,10,34,11.60
2015,04,28,10,35,11.60
2015,04,28,10,36,11.60
2015,04,28,10,37,11.60
2015,04,28,10,38,11.60
2015,04,28,10,39,11.60
2015,04,28,10,40,11.60
2015,04,28,10,41,11.60
2015,04,28,10,42,11.60
2015,04,28,10,43,11.60
2015,04,28,10,44,11.60
2015,04,28,10,45,11.70
2015,04,28,10,46,11.70
2015,04,28,10,47,11.70
2015,04,28,10,48,11.70
2015,04,28,10,49,11.70
2015,04,28,10,50,11.70
2015,04,28,10,51,11.70
2015,04,28,10,52,11.80
2015,04,28,10,53,11.80
2015,04,28,10,54,11.80
2015,04,28,10,55,11.80
2015,04,28,10,56,11.80
2015,04,28,10,57,11.80
2015,04,28,10,58,11.90
2015,04,28,10,59,11.90
2015,04,28,11,00,11.90
2015,04,28,11,01,11.90
2015,04,28,11,02,12.00
2015,04,28,11,03,12.00
2015,04,28,11,04,12.00
2015,04,28,11,05,12.10
2015,04,28,11,06,12.10
2015,04,28,11,07,12.10
2015,04,28,11,08,12.10
2015,04,28,11,09,12.10
2015,04,28,11,10,12.10
2015,04,28,11,11,12.10
2015,04,28,11,12,12.10
2015,04,28,11,13,12.10
2015,04,28,11,14,12.10
2015,04,28,11,15,12.10
2015,04,28,11,16,12.20
2015,04,28,11,17,12.20
2015,04,28,11,18,12.20
2015,04,28,11,19,12.20
2015,04,28,11,20,12.30
2015,04,28,11,21,12.30
2015,04,28,11,22,12.20
2015,04,28,11,23,12.20
2015,04,28,11,24,12.20
2015,04,28,11,25,12.20
2015,04,28,11,26,12.20
2015,04,28,11,27,12.20
2015,04,28,11,28,12.30
2015,04,28,11,29,12.30
2015,04,28,11,30,12.30
2015,04,28,11,31,12.30
2015,04,28,11,32,12.30
2015,04,28,11,33,12.30
2015,04,28,11,34,12.30
2015,04,28,11,35,12.40
2015,04,28,11,36,12.40
2015,04,28,11,37,12.50
2015,04,28,11,38,12.50
2015,04,28,11,39,12.60
2015,04,28,11,40,12.70
2015,04,28,11,41,12.70
2015,04,28,11,42,12.80
2015,04,28,11,43,12.80
2015,04,28,11,44,12.90
2015,04,28,11,45,12.90
2015,04,28,11,46,12.90
2015,04,28,11,47,12.90
2015,04,28,11,48,12.80
2015,04,28,11,49,12.80
2015,04,28,11,50,12.80
2015,04,28,11,51,12.80
2015,04,28,11,52,12.80
2015,04,28,11,53,12.80
2015,04,28,11,54,12.90
2015,04,28,11,55,13.00
2015,04,28,11,56,13.10
2015,04,28,11,57,13.20
2015,04,28,11,58,13.30
2015,04,28,11,59,13.40
2015,04,28,12,00,13.50
2015,04,28,12,01,13.60
2015,04,28,12,02,13.60
2015,04,28,12,03,13.70
2015,04,28,12,04,13.70
2015,04,28,12,05,13.70
2015,04,28,12,06,13.80
2015,04,28,12,07,13.80
2015,04,28,12,08,13.80
2015,04,28,12,09,13.90
2015,04,28,12,10,13.90
2015,04,28,12,11,13.90
2015,04,28,12,12,13.90
2015,04,28,12,13,13.90
2015,04,28,12,14,13.70
2015,04,28,12,15,13.60
2015,04,28,12,16,13.50
2015,04,28,12,17,13.40
2015,04,28,12,18,13.30
2015,04,28,12,19,13.20
2015,04,28,12,20,13.20
2015,04,28,12,21,13.20
2015,04,28,12,22,13.30
2015,04,28,12,23,13.20
2015,04,28,12,24,13.20
2015,04,28,12,25,13.20
2015,04,28,12,26,13.30
2015,04,28,12,27,13.30
2015,04,28,12,28,13.40
2015,04,28,12,29,13.50
2015,04,28,12,30,13.60
2015,04,28,12,31,13.70
2015,04,28,12,32,13.80
2015,04,28,12,33,13.90
2015,04,28,12,34,14.00
2015,04,28,12,35,14.10
2015,04,28,12,36,14.20
2015,04,28,12,37,14.40
2015,04,28,12,38,14.50
2015,04,28,12,39,14.60
2015,04,28,12,40,14.60
2015,04,28,12,41,14.60
2015,04,28,12,42,14.40
2015,04,28,12,43,14.30
2015,04,28,12,44,14.20
2015,04,28,12,45,14.20
2015,04,28,12,46,14.10
2015,04,28,12,47,14.10
2015,04,28,12,48,14.10
2015,04,28,12,49,14.20
2015,04,28,12,50,14.20
2015,04,28,12,51,14.20
2015,04,28,12,52,14.30
2015,04,28,12,53,14.30
2015,04,28,12,54,14.20
2015,04,28,12,55,14.20
2015,04,28,12,56,14.30
2015,04,28,12,57,14.30
2015,04,28,12,58,14.30
2015,04,28,12,59,14.30
2015,04,28,13,00,14.30
2015,04,28,13,01,14.20
2015,04,28,13,02,14.20
2015,04,28,13,03,14.20
2015,04,28,13,04,14.20
2015,04,28,13,05,14.20
2015,04,28,13,06,14.20
2015,04,28,13,07,14.20
2015,04,28,13,08,14.20
2015,04,28,13,09,14.20
2015,04,28,13,10,14.20
2015,04,28,13,11,14.20
2015,04,28,13,12,14.30
2015,04,28,13,13,14.20
2015,04,28,13,14,14.20
2015,04,28,13,15,14.10
2015,04,28,13,16,14.10
2015,04,28,13,17,13.90
2015,04,28,13,18,13.90
2015,04,28,13,19,13.90
2015,04,28,13,20,13.90
2015,04,28,13,21,13.90
2015,04,28,13,22,14.00
2015,04,28,13,23,14.00
2015,04,28,13,24,14.10
2015,04,28,13,25,14.10
2015,04,28,13,26,14.10
2015,04,28,13,27,14.10
2015,04,28,13,28,14.20
2015,04,28,13,29,14.20
2015,04,28,13,30,14.20
2015,04,28,13,31,14.20
2015,04,28,13,32,14.20
2015,04,28,13,33,14.20
2015,04,28,13,34,14.20
2015,04,28,13,35,14.20
2015,04,28,13,36,14.30
2015,04,28,13,37,14.20
2015,04,28,13,38,14.20
2015,04,28,13,39,14.20
2015,04,28,13,40,14.20
2015,04,28,13,41,14.20
2015,04,28,13,42,14.20
2015,04,28,13,43,14.20
2015,04,28,13,44,14.20
2015,04,28,13,45,14.20
2015,04,28,13,46,14.30
2015,04,28,13,47,14.30
2015,04,28,13,48,14.40
2015,04,28,13,49,14.40
2015,04,28,13,50,14.40
2015,04,28,13,51,14.50
2015,04,28,13,52,14.50
2015,04,28,13,53,14.50
2015,04,28,13,54,14.50
2015,04,28,13,55,14.50
2015,04,28,13,56,14.50
2015,04,28,13,57,14.50
2015,04,28,13,58,14.50
2015,04,28,13,59,14.40
2015,04,28,14,00,14.40
2015,04,28,14,01,14.40
2015,04,28,14,02,14.30
2015,04,28,14,03,14.30
2015,04,28,14,04,14.30
2015,04,28,14,05,14.20
2015,04,28,14,06,14.20
2015,04,28,14,07,14.20
2015,04,28,14,08,14.20
2015,04,28,14,09,14.10
2015,04,28,14,10,14.10
2015,04,28,14,11,14.10
2015,04,28,14,12,14.10
2015,04,28,14,13,14.00
2015,04,28,14,14,14.00
2015,04,28,14,15,14.00
2015,04,28,14,16,14.00
2015,04,28,14,17,14.10
2015,04,28,14,18,14.00
2015,04,28,14,19,14.00
2015,04,28,14,20,14.00
2015,04,28,14,21,13.90
2015,04,28,14,22,13.90
2015,04,28,14,23,13.80
2015,04,28,14,24,13.80
2015,04,28,14,25,13.80
2015,04,28,14,26,13.80
2015,04,28,14,27,13.70
2015,04,28,14,28,13.80
2015,04,28,14,29,13.80
2015,04,28,14,30,13.80
2015,04,28,14,31,13.90
2015,04,28,14,32,13.90
2015,04,28,14,33,13.90
2015,04,28,14,34,14.00
2015,04,28,14,35,14.00
2015,04,28,14,36,14.10
2015,04,28,14,37,14.10
2015,04,28,14,38,14.20
2015,04,28,14,39,14.20
2015,04,28,14,40,14.20
2015,04,28,14,41,14.30
2015,04,28,14,42,14.30
2015,04,28,14,43,14.40
2015,04,28,14,44,14.40
2015,04,28,14,45,14.30
2015,04,28,14,46,14.30
2015,04,28,14,47,14.30
2015,04,28,14,48,14.30
2015,04,28,14,49,14.30
2015,04,28,14,50,14.30
2015,04,28,14,51,14.30
2015,04,28,14,52,14.30
2015,04,28,14,53,14.30
2015,04,28,14,54,14.30
2015,04,28,14,55,14.20
2015,04,28,14,56,14.20
2015,04,28,14,57,14.20
2015,04,28,14,58,14.20
2015,04,28,14,59,14.20
2015,04,28,15,00,14.20
2015,04,28,15,01,14.30
2015,04,28,15,02,14.30
2015,04,28,15,03,14.30
2015,04,28,15,04,14.30
2015,04,28,15,05,14.40
2015,04,28,15,06,14.40
2015,04,28,15,07,14.40
2015,04,28,15,08,14.50
2015,04,28,15,09,14.50
2015,04,28,15,10,14.60
2015,04,28,15,11,14.50
2015,04,28,15,12,14.50
2015,04,28,15,13,14.40
2015,04,28,15,14,14.40
2015,04,28,15,15,14.30
2015,04,28,15,16,14.20
2015,04,28,15,17,14.20
2015,04,28,15,18,14.10
2015,04,28,15,19,14.10
2015,04,28,15,20,14.10
2015,04,28,15,21,14.10
2015,04,28,15,22,14.10
2015,04,28,15,23,14.10
2015,04,28,15,24,14.20
2015,04,28,15,25,14.30
2015,04,28,15,26,14.30
2015,04,28,15,27,14.30
2015,04,28,15,28,14.30
2015,04,28,15,29,14.30
2015,04,28,15,30,14.30
2015,04,28,15,31,14.30
2015,04,28,15,32,14.40
2015,04,28,15,33,14.40
2015,04,28,15,34,14.50
2015,04,28,15,35,14.60
2015,04,28,15,36,14.60
2015,04,28,15,37,14.70
2015,04,28,15,38,14.70
2015,04,28,15,39,14.70
2015,04,28,15,40,14.80
2015,04,28,15,41,14.80
2015,04,28,15,42,14.80
2015,04,28,15,43,14.80
2015,04,28,15,44,14.80
2015,04,28,15,45,14.80
2015,04,28,15,46,14.90
2015,04,28,15,47,14.90
2015,04,28,15,48,14.90
2015,04,28,15,49,14.90
2015,04,28,15,50,14.80
2015,04,28,15,51,14.80
2015,04,28,15,52,14.80
2015,04,28,15,53,14.70
2015,04,28,15,54,14.70
2015,04,28,15,55,14.80
2015,04,28,15,56,14.70
2015,04,28,15,57,14.70
2015,04,28,15,58,14.70
2015,04,28,15,59,14.70
2015,04,28,16,00,14.70
2015,04,28,16,01,14.80
2015,04,28,16,02,14.80
2015,04,28,16,03,14.80
2015,04,28,16,04,14.80
2015,04,28,16,05,14.80
2015,04,28,16,06,14.90
2015,04,28,16,07,14.90
2015,04,28,16,08,14.90
2015,04,28,16,09,14.90
2015,04,28,16,10,14.90
2015,04,28,16,11,14.90
2015,04,28,16,12,14.80
2015,04,28,16,13,14.80
2015,04,28,16,14,14.80
2015,04,28,16,15,14.70
2015,04,28,16,16,14.70
2015,04,28,16,17,14.80
2015,04,28,16,18,14.80
2015,04,28,16,19,14.80
2015,04,28,16,20,14.90
2015,04,28,16,21,15.00
2015,04,28,16,22,15.00
2015,04,28,16,23,15.10
2015,04,28,16,24,15.10
2015,04,28,16,25,15.00
2015,04,28,16,26,15.00
2015,04,28,16,27,14.90
2015,04,28,16,28,14.90
2015,04,28,16,29,14.90
2015,04,28,16,30,14.90
2015,04,28,16,31,14.90
2015,04,28,16,32,14.90
2015,04,28,16,33,14.90
2015,04,28,16,34,14.90
2015,04,28,16,35,14.80
2015,04,28,16,36,14.80
2015,04,28,16,37,14.80
2015,04,28,16,38,14.70
2015,04,28,16,39,14.70
2015,04,28,16,40,14.70
2015,04,28,16,41,14.60
2015,04,28,16,42,14.50
2015,04,28,16,43,14.40
2015,04,28,16,44,14.40
2015,04,28,16,45,14.30
2015,04,28,16,46,14.30
2015,04,28,16,47,14.30
2015,04,28,16,48,14.20
2015,04,28,16,49,14.10
2015,04,28,16,50,14.00
2015,04,28,16,51,13.90
2015,04,28,16,52,13.90
2015,04,28,16,53,13.80
2015,04,28,16,54,13.90
2015,04,28,16,55,13.90
2015,04,28,16,56,14.00
2015,04,28,16,57,14.10
2015,04,28,16,58,14.10
2015,04,28,16,59,14.20
2015,04,28,17,00,14.30
2015,04,28,17,01,14.40
2015,04,28,17,02,14.50
2015,04,28,17,03,14.60
2015,04,28,17,04,14.60
2015,04,28,17,05,14.70
2015,04,28,17,06,14.80
2015,04,28,17,07,14.90
2015,04,28,17,08,15.00
2015,04,28,17,09,15.10
2015,04,28,17,10,15.10
2015,04,28,17,11,15.10
2015,04,28,17,12,15.00
2015,04,28,17,13,15.00
2015,04,28,17,14,15.00
2015,04,28,17,15,15.00
2015,04,28,17,16,14.90
2015,04,28,17,17,14.90
2015,04,28,17,18,14.90
2015,04,28,17,19,14.90